CZ-4C DEB, 43280

Orbit data source: Space-Track

CZ-4C DEB, 43280 is space debris in LEO originally from a launch on Tue, 10 Apr 2018 UTC launched from the Jiuquan Satellite Launch Center, China (JSC). Debris objects in space refer to the collection of defunct objects orbiting the Earth. Examples of debris include non-operational satellites, rocket bodies, and fragments generated from explosions, collisions, or faulty payload assembly.

Loading next visibility...
CZ-4C DEB details
Identifier
43280, 2018-034F
Orbit
LEO
Last TLE update15 hours ago
Origin
Flag of CNCNSA (CN / PRC)
ManufacturerUnknown
MissionSpacecraft
Bus & MotorUnknown
MassUnknown
Launch date (UTC)
2018-04-10 (7 years ago)
Launch vehicleUnknown
Launch site
Jiuquan Satellite Launch Center, China (JSC)
Object type
Payload
Rocket body
Debris
Shape & HBRUnknown
Radar Cross SectionLarge (>1 m²)

Expand to show TLE details & history

TLE from 15 hours ago
0 CZ-4C DEB
1 43280U 18034F   24338.76213897  .00000109  00000-0  29554-3 0  9994
2 43280  63.3996 107.3955 0220349   5.7830 354.5662 13.44229408326502
Epoch: 2024-12-03T18:17Z
Definitive object data (Epoch: 2024-12-03T18:17:28.807Z)
Latitude-0.00002°
Longitude119.95846°
Altitude931.451 km
Speed7.467 km/s
True Right ascension07h 09m 34s
True Declination0° 00' 00"
Sunlit
Object was in full shadow at TLE epoch
Visualization TLE readout
Latitude61.81991°
Longitude-173.19072°
Altitude1,054.834 km
Speed7.354 km/s
Apparent Right ascension16h 05m 49s
Apparent Declination26° 01' 31"
Sunlit
Object is in daylight
Visualization observer readout
Local Sidereal Time06:51:39
Azimuth37.741° NE
Elevation-13.59°
Doppler factor1
Orbital elements
Apogee altitude1,257.007 km
Perigee altitude927.783 km
Semi-major axis7,470.532 km
Eccentricity0.0220349
Inclination63.3996°
RAAN107.3955°
Arg. of periapsis5.783°
True anomaly354.32036°
Mean anomaly354.5662°
Eccentric anomaly354.44397°
Mean motion3.36137 °/min
BSTAR0.00029554
Orbital period107.1 mins
Loading maneuver chart data...
Loading historical data...
Loading historical data...
Loading historical data...
Loading historical data...
Loading historical data...
Loading historical data...
Loading historical data...

CZ-4C DEB Visibility forecast

Observer location: undefined°, undefined

Span
Click to sort rows by Start time (UTC) header in descending order
Start Az.
Max El. time (UTC)
Max El. Az.
Max El.
End time (UTC)
End Az.
12 mins2024-12-04 10:28:26.905Z204.589° SW2024-12-04 10:34:26.905Z105.734° ESE43.939°2024-12-04 10:40:26.905Z37.325° NE
8 mins2024-12-04 12:22:26.905Z283.586° WNW2024-12-04 12:25:26.905Z320.424° NNW22.34°2024-12-04 12:30:26.905Z13.235° NNE
11 mins2024-12-04 18:01:26.905Z346.75° N2024-12-04 18:06:26.905Z44.493° NE29.993°2024-12-04 18:12:26.905Z104.934° ESE
13 mins2024-12-04 19:51:26.905Z316.286° NNW2024-12-04 19:57:26.905Z242.245° WSW40.442°2024-12-04 20:04:26.905Z166.614° S
|